Terminal Aerodrome Forecast
Issued by NWS Hastings, NE

Home | Current Version | Previous Version | Text Only | Print | Product List | Glossary On
Versions: 1 2 3 4 5 6 7 8 9 10 11 12 13 14 15 16 17 18 19 20 21 22 23 24 25 26 27 28
000
FTUS43 KGID 301129
TAFGRI
TAF
KGRI 301129Z 3012/3112 17009KT P6SM SKC
     FM310900 19013KT P6SM VCTS SCT080CB=

USA.gov is the U.S. government's official web portal to all federal, state and local government web resources and services.